SL-8 DEB, 2934

Orbit data source: Space-Track

SL-8 DEB, 2934 is space debris in LEO originally from a launch on Mon, 15 Mar 1965 UTC launched from the Tyuratam Missile And Space Complex (TTMTR). Debris objects in space refer to the collection of defunct objects orbiting the Earth. Examples of debris include non-operational satellites, rocket bodies, and fragments generated from explosions, collisions, or faulty payload assembly.

Loading next visibility...
SL-8 DEB details
Identifier
2934, 1965-020EM
Orbit
LEO
Last TLE update16 hours ago
Origin
Flag of CISRVSN (CIS)
ManufacturerUnknown
MissionSpacecraft
Bus & MotorUnknown
MassUnknown
Launch date (UTC)
1965-03-15 (60 years ago)
Launch vehicleUnknown
Launch site
Tyuratam Missile And Space Complex (TTMTR)
Object type
Payload
Rocket body
Debris
Shape & HBRUnknown
Radar Cross SectionSmall (<0.1 m²)

Expand to show TLE details & history

TLE from 16 hours ago
0 SL-8 DEB
1  2934U 65020EM  24356.58703777  .00000139  00000-0  12063-2 0  9992
2  2934  55.5926 214.1573 0361308 190.8124 184.7980 12.50776039634629
Epoch: 2024-12-21T14:05Z
Definitive object data (Epoch: 2024-12-21T14:05:20.063Z)
Latitude12.55017°
Longitude-79.08405°
Altitude1,743.839 km
Speed6.881 km/s
True Right ascension14h 51m 32s
True Declination12° 29' 11"
Sunlit
Object was in daylight at TLE epoch
Visualization TLE readout
Latitude35.23807°
Longitude61.5825°
Altitude1,298.884 km
Speed7.286 km/s
Apparent Right ascension21h 19m 23s
Apparent Declination2° 50' 22"
Sunlit
Object is in daylight
Visualization observer readout
Local Sidereal Time05:10:15
Azimuth290.813° WNW
Elevation-18.937°
Doppler factor1
Orbital elements
Apogee altitude1,744.376 km
Perigee altitude1,177.898 km
Semi-major axis7,839.274 km
Eccentricity0.0361308
Inclination55.5926°
RAAN214.1573°
Arg. of periapsis190.8124°
True anomaly184.46663°
Mean anomaly184.798°
Eccentric anomaly184.63087°
Mean motion3.12701 °/min
BSTAR0.0012063
Orbital period115.13 mins
Loading maneuver chart data...
Loading historical data...
Loading historical data...
Loading historical data...
Loading historical data...
Loading historical data...
Loading historical data...
Loading historical data...

SL-8 DEB Visibility forecast

Observer location: undefined°, undefined

Span
Click to sort rows by Start time (UTC) header in descending order
Start Az.
Max El. time (UTC)
Max El. Az.
Max El.
End time (UTC)
End Az.
14 mins2024-12-22 15:01:33.673Z162.772° S2024-12-22 15:08:33.673Z117.818° SE22.662°2024-12-22 15:15:33.673Z70.298° E
18 mins2024-12-22 16:59:33.673Z219.462° SW2024-12-22 17:08:33.673Z109.281° ESE44.836°2024-12-22 17:17:33.673Z47.354° ENE
16 mins2024-12-22 19:01:33.673Z269.867° W2024-12-22 19:09:33.673Z330.969° NNW33.503°2024-12-22 19:17:33.673Z40.973° NE
13 mins2024-12-22 21:06:33.673Z311.344° NW2024-12-22 21:12:33.673Z358.708° N26.292°2024-12-22 21:19:33.673Z57.695° ENE
14 mins2024-12-22 23:08:33.673Z321.31° NNW2024-12-22 23:15:33.673Z30.346° NE36.251°2024-12-22 23:22:33.673Z100.479° ESE
13 mins2024-12-23 01:09:33.673Z305.154° NW2024-12-23 01:15:33.673Z247.343° WSW40.003°2024-12-23 01:22:33.673Z158.117° S
|